Home > Weather > Cologne > Past weeks

Flag for Germany Past Weather in Cologne, North Rhine-Westphalia, Germany — Yesterday and Last 2 Weeks

Now
66 °F

Passing clouds.


Feels Like: 66 °F
Forecast: 58 / 74 °F
Wind: 1 mph from North

Location: Koeln / Bonn

Current Time: Jul 26, 2016 at 2:53:13 AM

Latest Report: Jul 26, 2016 at 2:20 AM


Visibility: N/A

Pressure: 30.12 "Hg

Humidity: 88%

Dew Point: 63 °F

Location of CologneLocation

Past Weather in Cologne — Graph

°F

Cologne Temperature Yesterday

Maximum temperature yesterday: 81 °F (at 1:20 PM)
Minimum temperature yesterday: 64 °F (at 5:20 AM)
Average temperature yesterday: 72 °F

High & Low Weather Summary for the Past Weeks

 TemperatureHumidityPressure
High93 °F (Jul 20, 3:20 PM)100% (Jul 13, 4:20 AM)30.30 "Hg (Jul 13, 4:20 AM)
Low48 °F (Jul 14, 4:20 AM)32% (Jul 20, 3:20 PM)29.80 "Hg (Jul 11, 1:20 AM)
Average69 °F72%30.07 "Hg
* Reported Jul 11 1:20 AM — Jul 26 1:20 AM, Cologne, Weather by CustomWeather, © 2016

Note: Actual official high and low records may vary slightly from our data, if they occured in-between our weather recording intervals... More about our weather records

Advertising

Cologne Weather History for the Previous 24 Hours

Scroll right to see more
 ConditionsComfort  
Time TempWeatherWind HumidityBarometerVisibility
1:20 AM
Tue, Jul 26
68 °FPassing clouds.3 mph83%30.12 "HgN/A
12:50 AM68 °FPassing clouds.2 mph83%30.12 "HgN/A
12:20 AM68 °FPassing clouds.2 mph83%30.12 "HgN/A
11:50 PM
Mon, Jul 25
70 °FPassing clouds.1 mph78%30.12 "HgN/A
11:20 PM70 °FPassing clouds.3 mph78%30.09 "HgN/A
10:50 PM70 °FPassing clouds.1 mph78%30.09 "HgN/A
10:20 PM70 °FScattered clouds.1 mph78%30.09 "HgN/A
9:50 PM70 °FScattered clouds.7 mph73%30.09 "HgN/A
9:20 PM73 °FScattered clouds.8 mph65%30.09 "HgN/A
8:50 PM73 °FPartly sunny.7 mph69%30.09 "HgN/A
8:20 PM75 °FScattered clouds.6 mph65%30.09 "HgN/A
7:50 PM77 °FScattered clouds.7 mph61%30.09 "HgN/A
7:20 PM77 °FScattered clouds.12 mph57%30.09 "HgN/A
6:50 PM79 °FScattered clouds.13 mph58%30.07 "HgN/A
6:20 PM81 °FPartly sunny.13 mph54%30.07 "HgN/A
5:50 PM79 °FPartly sunny.12 mph58%30.07 "HgN/A
5:20 PM79 °FPartly sunny.10 mph58%30.07 "HgN/A
4:50 PM77 °FBroken clouds.8 mph61%30.07 "HgN/A
4:20 PM81 °FBroken clouds.8 mph51%30.07 "HgN/A
3:50 PM77 °FPartly sunny.9 mph57%30.07 "HgN/A
3:20 PM79 °FPartly sunny.8 mph51%30.09 "HgN/A
2:50 PM79 °FPartly sunny.7 mph54%30.09 "HgN/A
2:20 PM79 °FPartly sunny.7 mph58%30.09 "HgN/A
1:50 PM79 °FBroken clouds.7 mph54%30.09 "HgN/A
1:20 PM81 °FScattered clouds.7 mph51%30.09 "HgN/A
12:50 PM79 °FScattered clouds.5 mph51%30.09 "HgN/A
12:20 PM77 °FPartly sunny.6 mph54%30.09 "HgN/A
11:50 AM75 °FPartly sunny.3 mph57%30.09 "HgN/A
11:20 AM75 °FBroken clouds.6 mph57%30.09 "HgN/A
10:50 AM73 °FBroken clouds.7 mph65%30.09 "HgN/A
10:20 AM72 °FBroken clouds.8 mph69%30.09 "HgN/A
9:50 AM72 °FBroken clouds.5 mph73%30.09 "HgN/A
9:20 AM72 °FBroken clouds.3 mph73%30.09 "HgN/A
8:50 AM70 °FScattered clouds.2 mph78%30.09 "HgN/A
8:20 AM70 °FBroken clouds.1 mph78%30.09 "HgN/A
7:50 AM66 °FBroken clouds.1 mph88%30.09 "HgN/A
7:20 AM64 °FBroken clouds.1 mph94%30.09 "HgN/A
6:50 AM64 °FFog.No wind94%30.09 "HgN/A
6:20 AM64 °FClear.1 mph94%30.09 "Hg10 mi
5:50 AM64 °FClear.1 mph94%30.09 "Hg10 mi
5:20 AM64 °FClear.1 mph94%30.09 "Hg10 mi
4:50 AM66 °FPassing clouds.3 mph88%30.09 "HgN/A
4:20 AM66 °FClear.1 mph88%30.09 "Hg10 mi
3:50 AM66 °FClear.1 mph88%30.09 "Hg10 mi
3:20 AM66 °FClear.1 mph94%30.09 "Hg10 mi
2:50 AM68 °FClear.1 mph88%30.09 "Hg10 mi
2:20 AM66 °FClear.No wind94%30.09 "Hg10 mi
Weather by CustomWeather, © 2016

See weather overviewHow to use our weather pages